{"data":{"norad_id":56814,"intl_designator":"2023-078AZ","name":"STARLINK-6059","alt_names":[],"object_type":"PAYLOAD","status":"ACTIVE","operator":null,"country":"US","launch_date":"2023-05-31","launch_site_code":"AFWTR","launch_vehicle":null,"mission":null,"orbit_class":"UNKNOWN","rcs_meters":null,"size_class":null,"mass_kg":null,"dimensions":null,"purposes":["comms"],"wikipedia_slug":null,"has_3d_model":false,"image_url":null,"decayed_at":null,"tle_current":{"epoch":"2026-09-20T18:20:28.035168Z","epoch_age_seconds":94820,"freshness":"FRESH","line1":"1 56814U 23078AZ  26263.76421337  .00000075  00000+0  14074-4 0  9997","line2":"2 56814  69.9994 212.4743 0003198 270.8096  89.2697 14.98331435181909","mean_motion":14.98331435,"eccentricity":0.0003198,"inclination_deg":69.9994,"raan_deg":212.4743,"arg_perigee_deg":270.8096,"mean_anomaly_deg":89.2697,"bstar":1.4074e-5,"rev_number":18190,"period_min":96.106907080942,"perigee_km":569.82878306146,"apogee_km":574.27412359621,"semimajor_km":6950.1884533288,"source":"CELESTRAK","updated_at":"2026-09-21T09:00:33.513653Z"}}}